TimeCET,TemperatureF,Dew PointF,Humidity,Sea Level PressureIn,VisibilityMPH,Wind Direction,Wind SpeedMPH,Gust SpeedMPH,PrecipitationIn,Events,Conditions,WindDirDegrees,DateUTC
12:55 AM,50.0,42.8,76,30.27,-9999.0,NNE,11.5,-,N/A,,Clear,30,2012-11-07 23:55:00
1:00 AM,50,44,71,30.30,6,NNE,11.5,,,,,30,2012-11-08 00:00:00
2:55 AM,48.2,42.8,82,30.27,-9999.0,NNE,11.5,-,N/A,,Clear,30,2012-11-08 01:55:00
3:55 AM,48.2,42.8,82,30.27,-9999.0,NNE,12.7,-,N/A,,Clear,30,2012-11-08 02:55:00
4:00 AM,48,42,72,30.30,6,NNE,12.7,,,,,30,2012-11-08 03:00:00
4:55 AM,48.2,42.8,82,30.27,-9999.0,NNE,10.4,-,N/A,,Clear,30,2012-11-08 03:55:00
5:55 AM,46.4,42.8,87,30.27,-9999.0,NNE,11.5,-,N/A,,Clear,30,2012-11-08 04:55:00
6:55 AM,46.4,41.0,81,30.27,6.2,NNE,11.5,-,N/A,,Partly Cloudy,30,2012-11-08 05:55:00
7:55 AM,48.2,42.8,82,30.27,6.2,NNE,10.4,-,N/A,,Partly Cloudy,30,2012-11-08 06:55:00
8:55 AM,57.2,50.0,77,30.27,6.2,NE,6.9,-,N/A,,Partly Cloudy,50,2012-11-08 07:55:00
9:55 AM,60.8,51.8,72,30.27,6.2,SE,8.1,-,N/A,,Scattered Clouds,130,2012-11-08 08:55:00
10:00 AM,62,51,58,30.30,9,SE,8.1,,,,Partly Cloudy,130,2012-11-08 09:00:00
10:55 AM,62.6,51.8,68,30.30,6.2,SSE,6.9,-,N/A,,Partly Cloudy,160,2012-11-08 09:55:00
11:55 AM,64.4,53.6,68,30.27,6.2,South,6.9,-,N/A,,Scattered Clouds,190,2012-11-08 10:55:00
12:55 PM,64.4,51.8,64,30.27,6.2,South,6.9,-,N/A,,Unknown,190,2012-11-08 11:55:00
1:00 PM,64,52,57,30.28,16,South,6.9,,,,Partly Cloudy,190,2012-11-08 12:00:00
1:55 PM,64.4,53.6,68,30.24,6.2,South,5.8,-,N/A,,Partly Cloudy,180,2012-11-08 12:55:00
2:55 PM,66.2,51.8,60,30.21,6.2,WSW,4.6,-,N/A,,Partly Cloudy,240,2012-11-08 13:55:00
3:55 PM,64.4,51.8,64,30.21,6.2,SW,3.5,-,N/A,,Partly Cloudy,230,2012-11-08 14:55:00
4:00 PM,64,51,53,30.23,16,SW,3.5,,,,Scattered Clouds,230,2012-11-08 15:00:00
4:55 PM,62.6,51.8,68,30.21,-9999.0,SSW,3.5,-,N/A,,Clear,200,2012-11-08 15:55:00
5:55 PM,59.0,51.8,77,30.21,-9999.0,North,2.3,-,N/A,,Clear,10,2012-11-08 16:55:00
6:55 PM,53.6,50.0,88,30.21,-9999.0,NE,2.3,-,N/A,,Clear,40,2012-11-08 17:55:00
7:00 PM,53,49,82,30.23,7,NE,2.3,,,,,40,2012-11-08 18:00:00
8:55 PM,51.8,48.2,88,30.18,-9999.0,ENE,2.3,-,N/A,,Clear,60,2012-11-08 19:55:00
9:55 PM,50.0,48.2,94,30.18,-9999.0,ENE,2.3,-,N/A,,Clear,70,2012-11-08 20:55:00
10:00 PM,51,47,83,30.20,7,ENE,2.3,,,,,70,2012-11-08 21:00:00
10:55 PM,50.0,46.4,87,30.18,-9999.0,East,2.3,-,N/A,,Clear,80,2012-11-08 21:55:00
11:55 PM,50.0,46.4,87,30.18,-9999.0,ENE,2.3,-,N/A,,Clear,70,2012-11-08 22:55:00